Погода в Пантелеймоновке

Россия / Приморский край     45°38′10″N   133°35′33″E
темп.,
°C
ветер,
м/с
пор.,
м/с
влажн.,
%
обл.,
%
осадки,
мм/ч
давл.,
гПа
погр.,
м
24 мая, вт
вт2401:00+14ююз4107827 0.0 1008229
04:00+13ююз51385100 0.6 1007378
07:00+13ююз41387100 0.5 1008686
10:00+18юз71073100 0.5 1008837
13:00+23юз79635 0.0 10061033
16:00+24юз675994 0.0 1005914
19:00+16з51196100 4.3 1006541
22:00+13сз3594100 6.8 1010227
25 мая, ср
ср2501:00+13ссв3590100 0.0 1009183
04:00+12с2492100 0.4 1010154
07:00+12ссв3790100 0.1 1010284
10:00+13св588497 0.9 1010439
13:00+15св477687 0.0 1010475
16:00+19св5663100 0.0 1008961
19:00+16св587524 0.0 1008572
22:00+12ссв378998 0.1 1009129
26 мая, чт
чт2601:00+11св378895 0.0 1007148
04:00+10св479259 0.0 1007144
07:00+11св4887100 0.0 1007211
10:00+17всв3376100 0.0 1006405
13:00+23св236175 0.0 1004883
16:00+24с3357100 0.0 1002943
19:00+21зюз2275100 1.5 100127
22:00+15ююз4990100 2.8 1003223
27 мая, пт
пт2701:00+15св1184100 0.1 100211
04:00+13ю3594100 1.0 1002154
07:00+14ююз119133 0.2 1002104
10:00+16зюз228534 0.7 1001444
13:00+20ю226599 0.8 10001146
16:00+21ссз1158100 1.4 9981309
19:00+19св357299 0.3 997233
22:00+14вюв4985100 1.2 997211
28 мая, сб
сб2801:00+14юв4985100 0.2 997339
04:00+13юв2393100 0.8 998128
07:00+12ююв3697100 1.4 998272
10:00+13ююз2496100 2.0 999286
13:00+17ю338099 0.1 999716
16:00+20юз22645 0.1 998975
19:00+20ю12684 0.1 998864
22:00+15ююв22840 0.1 100023